Time,TemperatureF,DewpointF,PressureIn,WindDirection,WindDirectionDegrees,WindSpeedMPH,WindSpeedGustMPH,Humidity,HourlyPrecipIn,Conditions,Clouds,dailyrainin,SoftwareType,DateUTC
2013-08-07 00:01:00,84.6,70.2,29.75,SE,135,6.9,6.9,62,0.00,,,0.00,WUHU216HW,2013-08-07 05:01:00,
2013-08-07 00:06:00,84.4,70.0,29.75,SSE,158,5.6,8.9,62,0.00,,,0.00,WUHU216HW,2013-08-07 05:06:00,
2013-08-07 00:11:00,84.2,69.8,29.75,South,180,9.2,9.2,62,0.00,,,0.00,WUHU216HW,2013-08-07 05:11:00,
2013-08-07 00:16:00,84.1,70.1,29.75,SSW,203,5.6,9.2,63,0.00,,,0.00,WUHU216HW,2013-08-07 05:16:00,
2013-08-07 00:21:00,83.9,69.9,29.75,South,180,3.8,10.1,63,0.00,,,0.00,WUHU216HW,2013-08-07 05:21:00,
2013-08-07 00:26:00,83.7,70.2,29.75,SW,225,2.5,10.1,64,0.00,,,0.00,WUHU216HW,2013-08-07 05:26:00,
2013-08-07 00:31:00,83.5,70.0,29.75,SSE,158,7.2,10.5,64,0.00,,,0.00,WUHU216HW,2013-08-07 05:31:00,
2013-08-07 00:36:00,83.3,69.8,29.75,South,180,4.0,10.5,64,0.00,,,0.00,WUHU216HW,2013-08-07 05:36:00,
2013-08-07 00:41:00,83.0,69.9,29.75,SSW,203,4.0,10.3,65,0.00,,,0.00,WUHU216HW,2013-08-07 05:41:00,
2013-08-07 00:46:00,82.8,70.2,29.75,South,180,5.6,10.1,66,0.00,,,0.00,WUHU216HW,2013-08-07 05:46:00,
2013-08-07 00:51:00,82.4,69.4,29.74,South,180,4.5,8.3,65,0.00,,,0.00,WUHU216HW,2013-08-07 05:51:00,
2013-08-07 00:56:00,82.3,69.7,29.74,SSE,158,7.4,7.4,66,0.00,,,0.00,WUHU216HW,2013-08-07 05:56:00,
2013-08-07 01:01:00,82.1,69.5,29.74,SSE,158,3.1,7.6,66,0.00,,,0.00,WUHU216HW,2013-08-07 06:01:00,
2013-08-07 01:06:00,81.9,69.4,29.75,SSE,158,4.9,7.6,66,0.00,,,0.00,WUHU216HW,2013-08-07 06:06:00,
2013-08-07 01:11:00,81.7,69.2,29.75,SSE,158,4.0,9.6,66,0.00,,,0.00,WUHU216HW,2013-08-07 06:11:00,
2013-08-07 01:16:00,81.5,69.5,29.74,South,180,6.3,9.6,67,0.00,,,0.00,WUHU216HW,2013-08-07 06:16:00,
2013-08-07 01:21:00,81.4,69.3,29.74,SSE,158,6.7,9.6,67,0.00,,,0.00,WUHU216HW,2013-08-07 06:21:00,
2013-08-07 01:26:00,81.2,69.6,29.74,South,180,5.4,9.4,68,0.00,,,0.00,WUHU216HW,2013-08-07 06:26:00,
2013-08-07 01:31:00,81.0,69.5,29.74,South,180,9.8,12.1,68,0.00,,,0.00,WUHU216HW,2013-08-07 06:31:00,
2013-08-07 01:36:00,80.8,69.3,29.74,South,180,9.8,12.1,68,0.00,,,0.00,WUHU216HW,2013-08-07 06:36:00,
2013-08-07 01:41:00,80.6,69.6,29.74,South,180,5.1,9.8,69,0.00,,,0.00,WUHU216HW,2013-08-07 06:41:00,
2013-08-07 01:46:00,80.3,69.2,29.74,South,180,3.8,8.5,69,0.00,,,0.00,WUHU216HW,2013-08-07 06:46:00,
2013-08-07 01:51:00,80.1,69.5,29.74,SSE,158,5.4,7.2,70,0.00,,,0.00,WUHU216HW,2013-08-07 06:51:00,
2013-08-07 01:56:00,79.9,69.3,29.75,SSE,158,6.9,7.2,70,0.00,,,0.00,WUHU216HW,2013-08-07 06:56:00,
2013-08-07 02:01:00,79.6,69.3,29.74,SW,225,4.7,6.9,71,0.00,,,0.00,WUHU216HW,2013-08-07 07:01:00,
2013-08-07 02:06:00,79.6,69.3,29.74,South,180,5.4,6.9,71,0.00,,,0.00,WUHU216HW,2013-08-07 07:06:00,
2013-08-07 02:11:00,79.2,68.9,29.74,South,180,7.6,7.6,71,0.00,,,0.00,WUHU216HW,2013-08-07 07:11:00,
2013-08-07 02:16:00,79.2,69.4,29.74,SSW,203,5.4,7.6,72,0.00,,,0.00,WUHU216HW,2013-08-07 07:16:00,
2013-08-07 02:21:00,79.0,69.2,29.74,SE,135,4.3,7.6,72,0.00,,,0.00,WUHU216HW,2013-08-07 07:21:00,
2013-08-07 02:26:00,78.8,69.0,29.74,SSE,158,5.4,6.5,72,0.00,,,0.00,WUHU216HW,2013-08-07 07:26:00,
2013-08-07 02:31:00,78.7,68.9,29.74,SSE,158,7.6,7.6,72,0.00,,,0.00,WUHU216HW,2013-08-07 07:31:00,
2013-08-07 02:36:00,78.5,69.0,29.75,SW,225,2.2,7.6,73,0.00,,,0.00,WUHU216HW,2013-08-07 07:36:00,
2013-08-07 02:41:00,78.3,69.0,29.74,SSE,158,4.5,4.5,73,0.00,,,0.00,WUHU216HW,2013-08-07 07:41:00,
2013-08-07 02:46:00,78.1,69.1,29.74,SSE,158,5.8,5.8,74,0.00,,,0.00,WUHU216HW,2013-08-07 07:46:00,
2013-08-07 02:51:00,78.1,69.1,29.74,South,180,3.1,5.8,74,0.00,,,0.00,WUHU216HW,2013-08-07 07:51:00,
2013-08-07 02:56:00,77.9,69.3,29.74,SW,225,6.0,6.0,75,0.00,,,0.00,WUHU216HW,2013-08-07 07:56:00,
2013-08-07 03:01:00,77.8,69.2,29.74,SSE,158,1.3,6.9,75,0.00,,,0.00,WUHU216HW,2013-08-07 08:01:00,
2013-08-07 03:06:00,77.8,69.2,29.74,South,180,1.6,6.9,75,0.00,,,0.00,WUHU216HW,2013-08-07 08:06:00,
2013-08-07 03:11:00,77.6,69.0,29.74,SSE,158,1.3,5.4,75,0.00,,,0.00,WUHU216HW,2013-08-07 08:11:00,
2013-08-07 03:16:00,77.4,68.9,29.74,South,180,3.1,5.4,75,0.00,,,0.00,WUHU216HW,2013-08-07 08:16:00,
2013-08-07 03:21:00,77.2,68.7,29.74,South,180,1.1,3.1,75,0.00,,,0.00,WUHU216HW,2013-08-07 08:21:00,
2013-08-07 03:26:00,77.0,68.5,29.74,WSW,248,3.6,3.6,75,0.00,,,0.00,WUHU216HW,2013-08-07 08:26:00,
2013-08-07 03:31:00,76.9,68.3,29.74,WSW,248,0.9,3.6,75,0.00,,,0.00,WUHU216HW,2013-08-07 08:31:00,
2013-08-07 03:36:00,76.7,68.1,29.74,SW,225,4.0,4.0,75,0.00,,,0.00,WUHU216HW,2013-08-07 08:36:00,
2013-08-07 03:41:00,76.7,68.1,29.74,SW,225,1.3,4.0,75,0.00,,,0.00,WUHU216HW,2013-08-07 08:41:00,
2013-08-07 03:46:00,76.5,68.4,29.73,SW,225,1.1,4.3,76,0.00,,,0.00,WUHU216HW,2013-08-07 08:46:00,
2013-08-07 03:51:00,76.5,68.0,29.74,SSW,203,2.2,4.3,75,0.00,,,0.00,WUHU216HW,2013-08-07 08:51:00,
2013-08-07 03:56:00,76.3,68.2,29.74,SW,225,1.1,2.5,76,0.00,,,0.00,WUHU216HW,2013-08-07 08:56:00,
2013-08-07 04:01:00,76.3,68.2,29.74,SSE,158,0.7,2.5,76,0.00,,,0.00,WUHU216HW,2013-08-07 09:01:00,
2013-08-07 04:06:00,76.1,68.1,29.74,SW,225,1.8,3.8,76,0.00,,,0.00,WUHU216HW,2013-08-07 09:06:00,
2013-08-07 04:11:00,76.1,68.1,29.73,SW,225,3.1,3.8,76,0.00,,,0.00,WUHU216HW,2013-08-07 09:11:00,
2013-08-07 04:16:00,76.0,67.9,29.74,West,270,2.2,3.1,76,0.00,,,0.00,WUHU216HW,2013-08-07 09:16:00,
2013-08-07 04:21:00,76.0,67.9,29.74,South,180,0.9,3.1,76,0.00,,,0.00,WUHU216HW,2013-08-07 09:21:00,
2013-08-07 04:26:00,76.0,68.7,29.73,South,180,2.2,4.5,78,0.00,,,0.00,WUHU216HW,2013-08-07 09:26:00,
2013-08-07 04:31:00,76.0,68.2,29.73,SW,225,3.4,4.5,77,0.00,,,0.00,WUHU216HW,2013-08-07 09:31:00,
2013-08-07 04:36:00,75.8,68.0,29.73,SW,225,1.1,4.0,77,0.00,,,0.00,WUHU216HW,2013-08-07 09:36:00,
2013-08-07 04:41:00,75.6,68.0,29.73,ESE,113,1.1,4.0,77,0.00,,,0.00,WUHU216HW,2013-08-07 09:41:00,
2013-08-07 04:46:00,75.6,68.7,29.73,SSW,203,1.8,4.5,79,0.00,,,0.00,WUHU216HW,2013-08-07 09:46:00,
2013-08-07 04:51:00,75.6,69.1,29.73,South,180,2.0,5.4,80,0.00,,,0.00,WUHU216HW,2013-08-07 09:51:00,
2013-08-07 04:56:00,75.6,68.7,29.73,SSE,158,3.4,5.4,79,0.00,,,0.00,WUHU216HW,2013-08-07 09:56:00,
2013-08-07 05:01:00,75.6,69.1,29.73,SSW,203,2.9,5.4,80,0.00,,,0.00,WUHU216HW,2013-08-07 10:01:00,
2013-08-07 05:06:00,75.6,69.1,29.73,SW,225,4.0,5.4,80,0.00,,,0.00,WUHU216HW,2013-08-07 10:06:00,
2013-08-07 05:11:00,75.4,69.0,29.73,SSW,203,2.5,4.0,80,0.00,,,0.00,WUHU216HW,2013-08-07 10:11:00,
2013-08-07 05:16:00,75.4,69.3,29.73,South,180,3.8,4.3,81,0.00,,,0.00,WUHU216HW,2013-08-07 10:16:00,
2013-08-07 05:21:00,75.2,69.1,29.73,SW,225,1.8,6.3,81,0.00,,,0.00,WUHU216HW,2013-08-07 10:21:00,
2013-08-07 05:26:00,75.1,68.6,29.74,SSW,203,4.3,6.3,80,0.00,,,0.00,WUHU216HW,2013-08-07 10:26:00,
2013-08-07 05:31:00,75.1,69.0,29.74,WSW,248,2.2,5.4,81,0.00,,,0.00,WUHU216HW,2013-08-07 10:31:00,
2013-08-07 05:36:00,75.1,69.0,29.73,SSW,203,2.5,5.4,81,0.00,,,0.00,WUHU216HW,2013-08-07 10:36:00,
2013-08-07 05:41:00,75.1,69.0,29.73,SSW,203,1.1,5.1,81,0.00,,,0.00,WUHU216HW,2013-08-07 10:41:00,
2013-08-07 05:46:00,75.1,69.3,29.73,South,180,2.5,4.9,82,0.00,,,0.00,WUHU216HW,2013-08-07 10:46:00,
2013-08-07 05:51:00,74.9,69.1,29.73,South,180,0.4,5.6,82,0.00,,,0.00,WUHU216HW,2013-08-07 10:51:00,
2013-08-07 05:56:00,74.9,68.8,29.74,West,270,4.9,5.6,81,0.00,,,0.00,WUHU216HW,2013-08-07 10:56:00,
2013-08-07 06:01:00,74.7,68.6,29.74,WSW,248,4.5,4.9,81,0.00,,,0.00,WUHU216HW,2013-08-07 11:01:00,
2013-08-07 06:06:00,74.7,68.6,29.73,SW,225,3.6,4.7,81,0.00,,,0.00,WUHU216HW,2013-08-07 11:06:00,
2013-08-07 06:11:00,74.7,68.6,29.73,SSW,203,1.1,4.7,81,0.00,,,0.00,WUHU216HW,2013-08-07 11:11:00,
2013-08-07 06:16:00,74.5,68.4,29.73,West,270,4.5,4.5,81,0.00,,,0.00,WUHU216HW,2013-08-07 11:16:00,
2013-08-07 06:21:00,74.5,68.4,29.74,SW,225,4.3,4.5,81,0.00,,,0.00,WUHU216HW,2013-08-07 11:21:00,
2013-08-07 06:26:00,74.5,68.8,29.73,SW,225,2.9,5.6,82,0.00,,,0.00,WUHU216HW,2013-08-07 11:26:00,
2013-08-07 06:31:00,74.7,68.6,29.73,SW,225,2.9,5.6,81,0.00,,,0.00,WUHU216HW,2013-08-07 11:31:00,
2013-08-07 06:36:00,74.7,69.0,29.73,SSE,158,3.6,3.6,82,0.00,,,0.00,WUHU216HW,2013-08-07 11:36:00,
2013-08-07 06:41:00,74.7,69.0,29.73,SW,225,5.6,6.3,82,0.00,,,0.00,WUHU216HW,2013-08-07 11:41:00,
2013-08-07 06:46:00,74.7,69.2,29.73,SW,225,1.8,6.3,83,0.00,,,0.00,WUHU216HW,2013-08-07 11:46:00,
2013-08-07 06:51:00,74.7,69.2,29.73,SW,225,4.3,6.0,83,0.00,,,0.00,WUHU216HW,2013-08-07 11:51:00,
2013-08-07 06:56:00,74.9,69.4,29.73,SW,225,3.4,6.0,83,0.00,,,0.00,WUHU216HW,2013-08-07 11:56:00,
2013-08-07 07:01:00,74.9,69.1,29.73,WSW,248,2.7,8.7,82,0.00,,,0.00,WUHU216HW,2013-08-07 12:01:00,
2013-08-07 07:06:00,74.9,69.1,29.73,South,180,4.9,8.7,82,0.00,,,0.00,WUHU216HW,2013-08-07 12:06:00,
2013-08-07 07:11:00,75.1,69.3,29.73,SW,225,4.0,6.0,82,0.00,,,0.00,WUHU216HW,2013-08-07 12:11:00,
2013-08-07 07:16:00,75.2,69.5,29.74,SSW,203,1.6,4.9,82,0.00,,,0.00,WUHU216HW,2013-08-07 12:16:00,
2013-08-07 07:21:00,75.4,69.3,29.74,WSW,248,5.4,5.4,81,0.00,,,0.00,WUHU216HW,2013-08-07 12:21:00,
2013-08-07 07:26:00,75.6,69.4,29.74,WSW,248,4.7,6.0,81,0.00,,,0.00,WUHU216HW,2013-08-07 12:26:00,
2013-08-07 07:31:00,76.0,69.8,29.73,South,180,4.9,6.5,81,0.00,,,0.00,WUHU216HW,2013-08-07 12:31:00,
2013-08-07 07:36:00,76.3,70.1,29.73,SSW,203,8.9,8.9,81,0.00,,,0.00,WUHU216HW,2013-08-07 12:36:00,
2013-08-07 07:41:00,76.7,70.4,29.73,WSW,248,6.3,8.9,81,0.00,,,0.00,WUHU216HW,2013-08-07 12:41:00,
2013-08-07 07:46:00,77.0,70.4,29.74,SW,225,6.9,8.1,80,0.00,,,0.00,WUHU216HW,2013-08-07 12:46:00,
2013-08-07 07:51:00,77.8,70.8,29.73,WSW,248,2.5,8.1,79,0.00,,,0.00,WUHU216HW,2013-08-07 12:51:00,
2013-08-07 07:56:00,78.8,71.4,29.74,SW,225,2.0,5.4,78,0.00,,,0.00,WUHU216HW,2013-08-07 12:56:00,
2013-08-07 08:01:00,80.1,71.5,29.73,WSW,248,6.0,6.5,75,0.00,,,0.00,WUHU216HW,2013-08-07 13:01:00,
2013-08-07 08:06:00,81.2,71.7,29.74,South,180,4.7,6.5,73,0.00,,,0.00,WUHU216HW,2013-08-07 13:06:00,
2013-08-07 08:11:00,81.9,72.0,29.74,SW,225,8.5,8.5,72,0.00,,,0.00,WUHU216HW,2013-08-07 13:11:00,
2013-08-07 08:16:00,82.6,72.6,29.74,SW,225,7.2,8.5,72,0.00,,,0.00,WUHU216HW,2013-08-07 13:16:00,
2013-08-07 08:21:00,83.2,72.4,29.74,WSW,248,5.4,9.8,70,0.00,,,0.00,WUHU216HW,2013-08-07 13:21:00,
2013-08-07 08:26:00,83.9,73.1,29.74,SSW,203,5.4,9.8,70,0.00,,,0.00,WUHU216HW,2013-08-07 13:26:00,
2013-08-07 08:31:00,84.2,72.5,29.74,SSE,158,8.1,10.3,68,0.00,,,0.00,WUHU216HW,2013-08-07 13:31:00,
2013-08-07 08:36:00,85.7,73.5,29.74,SSW,203,0.9,10.3,67,0.00,,,0.00,WUHU216HW,2013-08-07 13:36:00,
2013-08-07 08:41:00,86.9,73.8,29.74,South,180,4.0,5.1,65,0.00,,,0.00,WUHU216HW,2013-08-07 13:41:00,
2013-08-07 08:46:00,88.2,74.1,29.73,South,180,2.9,8.5,63,0.00,,,0.00,WUHU216HW,2013-08-07 13:46:00,
2013-08-07 08:51:00,89.5,73.3,29.74,WSW,248,4.3,8.5,59,0.00,,,0.00,WUHU216HW,2013-08-07 13:51:00,
2013-08-07 08:56:00,89.1,72.5,29.74,SW,225,7.2,12.1,58,0.00,,,0.00,WUHU216HW,2013-08-07 13:56:00,
2013-08-07 09:01:00,89.8,73.6,29.75,SW,225,5.6,12.1,59,0.00,,,0.00,WUHU216HW,2013-08-07 14:01:00,
2013-08-07 09:06:00,88.4,72.3,29.74,SW,225,9.6,9.8,59,0.00,,,0.00,WUHU216HW,2013-08-07 14:06:00,
2013-08-07 09:11:00,89.3,74.2,29.74,SW,225,2.0,9.6,61,0.00,,,0.00,WUHU216HW,2013-08-07 14:11:00,
2013-08-07 09:16:00,91.1,73.1,29.74,WSW,248,11.2,11.2,56,0.00,,,0.00,WUHU216HW,2013-08-07 14:16:00,
2013-08-07 09:21:00,90.9,73.5,29.74,SW,225,3.8,11.2,57,0.00,,,0.00,WUHU216HW,2013-08-07 14:21:00,
2013-08-07 09:26:00,92.9,74.3,29.75,WSW,248,5.8,7.4,55,0.00,,,0.00,WUHU216HW,2013-08-07 14:26:00,
2013-08-07 09:31:00,93.2,73.5,29.75,West,270,7.4,9.4,53,0.00,,,0.00,WUHU216HW,2013-08-07 14:31:00,
2013-08-07 09:36:00,93.2,73.5,29.75,SW,225,6.9,9.4,53,0.00,,,0.00,WUHU216HW,2013-08-07 14:36:00,
2013-08-07 09:41:00,94.3,74.5,29.75,SSW,203,10.1,10.1,53,0.00,,,0.00,WUHU216HW,2013-08-07 14:41:00,
2013-08-07 09:46:00,94.9,74.0,29.75,WSW,248,4.0,10.1,51,0.00,,,0.00,WUHU216HW,2013-08-07 14:46:00,
2013-08-07 09:51:00,95.0,73.6,29.75,WSW,248,8.3,8.7,50,0.00,,,0.00,WUHU216HW,2013-08-07 14:51:00,
2013-08-07 09:56:00,94.9,73.4,29.75,SSW,203,3.4,8.7,50,0.00,,,0.00,WUHU216HW,2013-08-07 14:56:00,
2013-08-07 10:01:00,96.1,73.3,29.75,SW,225,5.6,8.3,48,0.00,,,0.00,WUHU216HW,2013-08-07 15:01:00,
2013-08-07 10:06:00,96.3,74.1,29.75,SW,225,7.4,7.6,49,0.00,,,0.00,WUHU216HW,2013-08-07 15:06:00,
2013-08-07 10:11:00,97.4,74.4,29.75,South,180,6.0,7.4,48,0.00,,,0.00,WUHU216HW,2013-08-07 15:11:00,
2013-08-07 10:16:00,97.4,73.7,29.75,SSW,203,5.4,6.9,47,0.00,,,0.00,WUHU216HW,2013-08-07 15:16:00,
2013-08-07 10:21:00,97.7,74.1,29.76,SSE,158,4.7,8.3,47,0.00,,,0.00,WUHU216HW,2013-08-07 15:21:00,
2013-08-07 10:26:00,97.9,73.5,29.76,SW,225,3.1,8.3,46,0.00,,,0.00,WUHU216HW,2013-08-07 15:26:00,
2013-08-07 10:31:00,98.6,74.2,29.76,WSW,248,6.9,9.4,46,0.00,,,0.00,WUHU216HW,2013-08-07 15:31:00,
2013-08-07 10:36:00,99.4,73.5,29.76,SSW,203,3.4,9.4,44,0.00,,,0.00,WUHU216HW,2013-08-07 15:36:00,
2013-08-07 10:41:00,99.4,73.5,29.76,South,180,7.2,9.2,44,0.00,,,0.00,WUHU216HW,2013-08-07 15:41:00,
2013-08-07 10:46:00,99.9,74.0,29.76,SSW,203,7.6,9.2,44,0.00,,,0.00,WUHU216HW,2013-08-07 15:46:00,
2013-08-07 10:51:00,100.8,73.4,29.76,SSE,158,8.5,9.4,42,0.00,,,0.00,WUHU216HW,2013-08-07 15:51:00,
2013-08-07 10:56:00,101.0,74.4,29.76,West,270,6.3,13.4,43,0.00,,,0.00,WUHU216HW,2013-08-07 15:56:00,
2013-08-07 11:01:00,100.4,72.5,29.76,South,180,4.3,13.4,41,0.00,,,0.00,WUHU216HW,2013-08-07 16:01:00,
2013-08-07 11:06:00,101.2,73.8,29.76,SSE,158,2.7,8.9,42,0.00,,,0.00,WUHU216HW,2013-08-07 16:06:00,
2013-08-07 11:11:00,102.1,74.0,29.76,WSW,248,2.5,7.4,41,0.00,,,0.00,WUHU216HW,2013-08-07 16:11:00,
2013-08-07 11:16:00,101.9,73.1,29.76,South,180,9.2,9.2,40,0.00,,,0.00,WUHU216HW,2013-08-07 16:16:00,
2013-08-07 11:21:00,99.9,73.4,29.76,SSW,203,4.5,9.2,43,0.00,,,0.00,WUHU216HW,2013-08-07 16:21:00,
2013-08-07 11:26:00,101.5,74.8,29.76,SSW,203,5.4,7.4,43,0.00,,,0.00,WUHU216HW,2013-08-07 16:26:00,
2013-08-07 11:31:00,102.4,74.3,29.76,West,270,7.6,7.6,41,0.00,,,0.00,WUHU216HW,2013-08-07 16:31:00,
2013-08-07 11:36:00,103.7,74.7,29.76,SSW,203,2.7,10.3,40,0.00,,,0.00,WUHU216HW,2013-08-07 16:36:00,
2013-08-07 11:41:00,103.0,74.1,29.75,SW,225,8.7,10.3,40,0.00,,,0.00,WUHU216HW,2013-08-07 16:41:00,
2013-08-07 11:46:00,102.8,73.9,29.75,SSW,203,3.4,8.7,40,0.00,,,0.00,WUHU216HW,2013-08-07 16:46:00,
2013-08-07 11:51:00,103.1,74.3,29.75,South,180,4.5,8.1,40,0.00,,,0.00,WUHU216HW,2013-08-07 16:51:00,
2013-08-07 11:56:00,104.6,75.5,29.76,SW,225,2.9,6.7,40,0.00,,,0.00,WUHU216HW,2013-08-07 16:56:00,
2013-08-07 12:01:00,105.7,73.1,29.76,WSW,248,4.7,10.1,36,0.00,,,0.00,WUHU216HW,2013-08-07 17:01:00,
2013-08-07 12:06:00,105.8,75.0,29.76,SSW,203,0.0,10.1,38,0.00,,,0.00,WUHU216HW,2013-08-07 17:06:00,
2013-08-07 12:11:00,106.4,74.6,29.75,WNW,293,6.9,8.3,37,0.00,,,0.00,WUHU216HW,2013-08-07 17:11:00,
2013-08-07 12:16:00,104.6,72.2,29.76,SSW,203,5.6,8.3,36,0.00,,,0.00,WUHU216HW,2013-08-07 17:16:00,
2013-08-07 12:21:00,102.2,73.4,29.75,SW,225,3.8,10.5,40,0.00,,,0.00,WUHU216HW,2013-08-07 17:21:00,
2013-08-07 12:26:00,103.1,74.3,29.75,WSW,248,3.8,10.5,40,0.00,,,0.00,WUHU216HW,2013-08-07 17:26:00,
2013-08-07 12:31:00,104.0,73.4,29.75,SE,135,3.8,5.1,38,0.00,,,0.00,WUHU216HW,2013-08-07 17:31:00,
2013-08-07 12:36:00,104.9,72.5,29.75,SSW,203,6.7,7.8,36,0.00,,,0.00,WUHU216HW,2013-08-07 17:36:00,
2013-08-07 12:41:00,104.8,74.0,29.75,SE,135,4.0,7.8,38,0.00,,,0.00,WUHU216HW,2013-08-07 17:41:00,
2013-08-07 12:46:00,105.3,72.7,29.75,SSW,203,4.9,6.9,36,0.00,,,0.00,WUHU216HW,2013-08-07 17:46:00,
2013-08-07 12:51:00,105.5,72.9,29.74,South,180,2.2,6.9,36,0.00,,,0.00,WUHU216HW,2013-08-07 17:51:00,
2013-08-07 12:56:00,104.9,74.2,29.74,WSW,248,7.6,7.6,38,0.00,,,0.00,WUHU216HW,2013-08-07 17:56:00,
2013-08-07 13:01:00,105.8,73.3,29.74,South,180,3.4,7.6,36,0.00,,,0.00,WUHU216HW,2013-08-07 18:01:00,
2013-08-07 13:06:00,106.0,73.4,29.74,South,180,4.7,8.9,36,0.00,,,0.00,WUHU216HW,2013-08-07 18:06:00,
2013-08-07 13:11:00,105.1,71.7,29.74,SW,225,3.1,8.9,35,0.00,,,0.00,WUHU216HW,2013-08-07 18:11:00,
2013-08-07 13:16:00,104.2,72.7,29.73,SSW,203,4.7,6.0,37,0.00,,,0.00,WUHU216HW,2013-08-07 18:16:00,
2013-08-07 13:21:00,104.4,72.0,29.73,SSW,203,3.4,4.7,36,0.00,,,0.00,WUHU216HW,2013-08-07 18:21:00,
2013-08-07 13:26:00,104.0,71.6,29.73,West,270,5.8,5.8,36,0.00,,,0.00,WUHU216HW,2013-08-07 18:26:00,
2013-08-07 13:31:00,105.1,71.7,29.73,South,180,0.4,6.9,35,0.00,,,0.00,WUHU216HW,2013-08-07 18:31:00,
2013-08-07 13:36:00,105.1,71.7,29.73,WSW,248,6.0,8.5,35,0.00,,,0.00,WUHU216HW,2013-08-07 18:36:00,
2013-08-07 13:41:00,105.1,71.7,29.73,SW,225,6.3,9.6,35,0.00,,,0.00,WUHU216HW,2013-08-07 18:41:00,
2013-08-07 13:46:00,104.8,71.5,29.73,South,180,2.9,9.6,35,0.00,,,0.00,WUHU216HW,2013-08-07 18:46:00,
2013-08-07 13:51:00,104.4,72.0,29.72,WSW,248,7.2,7.2,36,0.00,,,0.00,WUHU216HW,2013-08-07 18:51:00,
2013-08-07 13:56:00,104.8,70.6,29.72,SW,225,4.7,7.2,34,0.00,,,0.00,WUHU216HW,2013-08-07 18:56:00,
2013-08-07 14:01:00,104.8,70.6,29.72,SSW,203,2.5,5.8,34,0.00,,,0.00,WUHU216HW,2013-08-07 19:01:00,
2013-08-07 14:06:00,104.9,70.7,29.72,SW,225,1.8,7.8,34,0.00,,,0.00,WUHU216HW,2013-08-07 19:06:00,
2013-08-07 14:11:00,104.0,70.8,29.72,SW,225,3.4,8.1,35,0.00,,,0.00,WUHU216HW,2013-08-07 19:11:00,
2013-08-07 14:16:00,104.8,70.6,29.71,SSE,158,2.5,8.1,34,0.00,,,0.00,WUHU216HW,2013-08-07 19:16:00,
2013-08-07 14:21:00,103.5,70.4,29.71,SE,135,3.8,6.3,35,0.00,,,0.00,WUHU216HW,2013-08-07 19:21:00,
2013-08-07 14:26:00,103.0,69.8,29.71,South,180,3.4,6.3,35,0.00,,,0.00,WUHU216HW,2013-08-07 19:26:00,
2013-08-07 14:31:00,103.3,70.2,29.71,SSE,158,2.5,6.7,35,0.00,,,0.00,WUHU216HW,2013-08-07 19:31:00,
2013-08-07 14:36:00,104.4,71.1,29.71,West,270,7.6,7.6,35,0.00,,,0.00,WUHU216HW,2013-08-07 19:36:00,
2013-08-07 14:41:00,104.9,69.9,29.71,SSE,158,4.9,7.6,33,0.00,,,0.00,WUHU216HW,2013-08-07 19:41:00,
2013-08-07 14:46:00,104.4,69.5,29.71,WSW,248,4.0,8.1,33,0.00,,,0.00,WUHU216HW,2013-08-07 19:46:00,
2013-08-07 14:51:00,105.8,70.7,29.70,SSW,203,4.0,8.1,33,0.00,,,0.00,WUHU216HW,2013-08-07 19:51:00,
2013-08-07 14:56:00,105.1,68.3,29.70,South,180,4.5,6.0,31,0.00,,,0.00,WUHU216HW,2013-08-07 19:56:00,
2013-08-07 15:01:00,104.0,68.3,29.70,SSE,158,1.1,7.2,32,0.00,,,0.00,WUHU216HW,2013-08-07 20:01:00,
2013-08-07 15:06:00,103.5,67.0,29.69,SSW,203,3.4,7.2,31,0.00,,,0.00,WUHU216HW,2013-08-07 20:06:00,
2013-08-07 15:11:00,102.6,68.7,29.69,SSE,158,8.5,8.5,34,0.00,,,0.00,WUHU216HW,2013-08-07 20:11:00,
2013-08-07 15:16:00,101.9,68.0,29.69,SW,225,3.4,8.5,34,0.00,,,0.00,WUHU216HW,2013-08-07 20:16:00,
2013-08-07 15:21:00,101.2,68.3,29.69,South,180,3.8,7.6,35,0.00,,,0.00,WUHU216HW,2013-08-07 20:21:00,
2013-08-07 15:26:00,101.0,68.1,29.69,SSE,158,7.8,7.8,35,0.00,,,0.00,WUHU216HW,2013-08-07 20:26:00,
2013-08-07 15:31:00,100.6,67.9,29.68,SSE,158,4.5,7.8,35,0.00,,,0.00,WUHU216HW,2013-08-07 20:31:00,
2013-08-07 15:36:00,100.8,68.9,29.68,East,90,4.5,6.9,36,0.00,,,0.00,WUHU216HW,2013-08-07 20:36:00,
2013-08-07 15:41:00,100.3,68.3,29.68,SSE,158,5.4,6.9,36,0.00,,,0.00,WUHU216HW,2013-08-07 20:41:00,
2013-08-07 15:46:00,100.3,68.3,29.68,SSE,158,3.8,6.0,36,0.00,,,0.00,WUHU216HW,2013-08-07 20:46:00,
2013-08-07 15:51:00,100.6,67.9,29.68,SW,225,4.7,6.0,35,0.00,,,0.00,WUHU216HW,2013-08-07 20:51:00,
2013-08-07 15:56:00,100.4,67.7,29.68,SSE,158,3.6,5.4,35,0.00,,,0.00,WUHU216HW,2013-08-07 20:56:00,
2013-08-07 16:01:00,100.4,67.7,29.68,South,180,2.2,6.7,35,0.00,,,0.00,WUHU216HW,2013-08-07 21:01:00,
2013-08-07 16:06:00,100.1,67.3,29.67,South,180,2.5,6.7,35,0.00,,,0.00,WUHU216HW,2013-08-07 21:06:00,
2013-08-07 16:11:00,99.9,66.3,29.67,SSE,158,3.4,6.5,34,0.00,,,0.00,WUHU216HW,2013-08-07 21:11:00,
2013-08-07 16:16:00,99.7,66.3,29.67,SE,135,2.9,8.3,34,0.00,,,0.00,WUHU216HW,2013-08-07 21:16:00,
2013-08-07 16:21:00,99.9,66.3,29.67,South,180,3.8,8.3,34,0.00,,,0.00,WUHU216HW,2013-08-07 21:21:00,
2013-08-07 16:26:00,100.3,65.9,29.67,South,180,6.0,6.0,33,0.00,,,0.00,WUHU216HW,2013-08-07 21:26:00,
2013-08-07 16:31:00,100.1,65.7,29.67,SSE,158,3.6,6.0,33,0.00,,,0.00,WUHU216HW,2013-08-07 21:31:00,
2013-08-07 16:36:00,99.9,65.5,29.66,SE,135,2.5,5.4,33,0.00,,,0.00,WUHU216HW,2013-08-07 21:36:00,
2013-08-07 16:41:00,100.3,65.9,29.66,SE,135,2.2,5.4,33,0.00,,,0.00,WUHU216HW,2013-08-07 21:41:00,
2013-08-07 16:46:00,100.4,65.2,29.66,SE,135,5.8,5.8,32,0.00,,,0.00,WUHU216HW,2013-08-07 21:46:00,
2013-08-07 16:51:00,100.3,64.2,29.66,ESE,113,3.8,5.8,31,0.00,,,0.00,WUHU216HW,2013-08-07 21:51:00,
2013-08-07 16:56:00,100.1,64.1,29.66,SW,225,3.4,4.3,31,0.00,,,0.00,WUHU216HW,2013-08-07 21:56:00,
2013-08-07 17:01:00,100.1,64.1,29.66,SSE,158,3.6,4.3,31,0.00,,,0.00,WUHU216HW,2013-08-07 22:01:00,
2013-08-07 17:06:00,99.9,63.1,29.66,ESE,113,4.7,6.0,30,0.00,,,0.00,WUHU216HW,2013-08-07 22:06:00,
2013-08-07 17:11:00,99.7,62.9,29.66,SSW,203,3.4,6.0,30,0.00,,,0.00,WUHU216HW,2013-08-07 22:11:00,
2013-08-07 17:16:00,99.7,62.9,29.66,SSE,158,3.4,6.0,30,0.00,,,0.00,WUHU216HW,2013-08-07 22:16:00,
2013-08-07 17:21:00,99.7,62.9,29.65,SSE,158,4.5,6.9,30,0.00,,,0.00,WUHU216HW,2013-08-07 22:21:00,
2013-08-07 17:26:00,99.7,61.7,29.65,SSW,203,5.1,6.9,29,0.00,,,0.00,WUHU216HW,2013-08-07 22:26:00,
2013-08-07 17:31:00,99.5,62.7,29.65,SE,135,0.7,5.1,30,0.00,,,0.00,WUHU216HW,2013-08-07 22:31:00,
2013-08-07 17:36:00,99.4,63.4,29.65,SSW,203,6.7,6.7,31,0.00,,,0.00,WUHU216HW,2013-08-07 22:36:00,
2013-08-07 17:41:00,99.4,62.6,29.64,SW,225,3.6,6.9,30,0.00,,,0.00,WUHU216HW,2013-08-07 22:41:00,
2013-08-07 17:46:00,99.2,63.3,29.64,SW,225,1.8,6.9,31,0.00,,,0.00,WUHU216HW,2013-08-07 22:46:00,
2013-08-07 17:51:00,99.2,63.3,29.64,South,180,3.1,3.8,31,0.00,,,0.00,WUHU216HW,2013-08-07 22:51:00,
2013-08-07 17:56:00,99.0,63.1,29.64,South,180,5.1,7.4,31,0.00,,,0.00,WUHU216HW,2013-08-07 22:56:00,
2013-08-07 18:01:00,99.0,63.1,29.64,SE,135,5.1,7.4,31,0.00,,,0.00,WUHU216HW,2013-08-07 23:01:00,
2013-08-07 18:06:00,98.8,63.7,29.63,SE,135,4.7,5.8,32,0.00,,,0.00,WUHU216HW,2013-08-07 23:06:00,
2013-08-07 18:11:00,98.6,63.5,29.63,SSE,158,4.7,6.0,32,0.00,,,0.00,WUHU216HW,2013-08-07 23:11:00,
2013-08-07 18:16:00,98.5,62.6,29.63,ESE,113,6.0,6.9,31,0.00,,,0.00,WUHU216HW,2013-08-07 23:16:00,
2013-08-07 18:21:00,98.1,62.3,29.63,ESE,113,5.4,6.9,31,0.00,,,0.00,WUHU216HW,2013-08-07 23:21:00,
2013-08-07 18:26:00,98.1,61.5,29.63,ESE,113,4.7,7.2,30,0.00,,,0.00,WUHU216HW,2013-08-07 23:26:00,
2013-08-07 18:31:00,97.9,62.1,29.63,South,180,7.4,7.4,31,0.00,,,0.00,WUHU216HW,2013-08-07 23:31:00,
2013-08-07 18:36:00,97.9,61.3,29.63,SSE,158,3.1,7.6,30,0.00,,,0.00,WUHU216HW,2013-08-07 23:36:00,
2013-08-07 18:41:00,97.6,60.9,29.62,SSW,203,5.6,8.1,30,0.00,,,0.00,WUHU216HW,2013-08-07 23:41:00,
2013-08-07 18:46:00,97.6,60.9,29.62,South,180,3.6,8.1,30,0.00,,,0.00,WUHU216HW,2013-08-07 23:46:00,
2013-08-07 18:51:00,97.4,60.8,29.62,South,180,3.6,10.5,30,0.00,,,0.00,WUHU216HW,2013-08-07 23:51:00,
2013-08-07 18:56:00,97.2,60.7,29.62,SW,225,2.9,10.5,30,0.00,,,0.00,WUHU216HW,2013-08-07 23:56:00,
2013-08-07 19:01:00,97.0,59.4,29.62,South,180,3.4,5.4,29,0.00,,,0.00,WUHU216HW,2013-08-08 00:01:00,
2013-08-07 19:06:00,97.0,60.5,29.62,SE,135,4.0,5.4,30,0.00,,,0.00,WUHU216HW,2013-08-08 00:06:00,
2013-08-07 19:11:00,96.8,60.3,29.62,SSE,158,2.2,6.0,30,0.00,,,0.00,WUHU216HW,2013-08-08 00:11:00,
2013-08-07 19:16:00,96.5,60.0,29.63,South,180,4.0,7.2,30,0.00,,,0.00,WUHU216HW,2013-08-08 00:16:00,
2013-08-07 19:21:00,96.3,60.7,29.63,South,180,1.1,7.2,31,0.00,,,0.00,WUHU216HW,2013-08-08 00:21:00,
2013-08-07 19:26:00,96.1,60.6,29.63,SE,135,1.1,3.8,31,0.00,,,0.00,WUHU216HW,2013-08-08 00:26:00,
2013-08-07 19:31:00,95.8,60.2,29.63,SSE,158,1.8,5.1,31,0.00,,,0.00,WUHU216HW,2013-08-08 00:31:00,
2013-08-07 19:36:00,95.4,59.9,29.63,South,180,3.8,5.1,31,0.00,,,0.00,WUHU216HW,2013-08-08 00:36:00,
2013-08-07 19:41:00,95.0,60.5,29.63,South,180,2.0,3.8,32,0.00,,,0.00,WUHU216HW,2013-08-08 00:41:00,
2013-08-07 19:46:00,94.7,60.9,29.63,SSW,203,1.6,2.7,33,0.00,,,0.00,WUHU216HW,2013-08-08 00:46:00,
2013-08-07 19:51:00,94.3,60.7,29.63,SSW,203,0.4,2.7,33,0.00,,,0.00,WUHU216HW,2013-08-08 00:51:00,
2013-08-07 19:56:00,94.0,61.1,29.63,SSW,203,1.1,2.9,34,0.00,,,0.00,WUHU216HW,2013-08-08 00:56:00,
2013-08-07 20:01:00,93.6,60.9,29.64,SW,225,1.1,2.9,34,0.00,,,0.00,WUHU216HW,2013-08-08 01:01:00,
2013-08-07 20:06:00,92.9,61.0,29.64,SSW,203,1.6,1.8,35,0.00,,,0.00,WUHU216HW,2013-08-08 01:06:00,
2013-08-07 20:11:00,92.3,61.3,29.64,SSW,203,1.1,1.8,36,0.00,,,0.00,WUHU216HW,2013-08-08 01:11:00,
2013-08-07 20:16:00,92.0,61.0,29.64,SSW,203,2.2,2.2,36,0.00,,,0.00,WUHU216HW,2013-08-08 01:16:00,
2013-08-07 20:21:00,91.4,60.6,29.64,SSW,203,0.2,2.2,36,0.00,,,0.00,WUHU216HW,2013-08-08 01:21:00,
2013-08-07 20:26:00,91.1,61.0,29.64,SSW,203,0.4,1.8,37,0.00,,,0.00,WUHU216HW,2013-08-08 01:26:00,
2013-08-07 20:31:00,90.7,61.5,29.64,SW,225,1.8,1.8,38,0.00,,,0.00,WUHU216HW,2013-08-08 01:31:00,
2013-08-07 20:36:00,90.4,61.9,29.65,South,180,3.4,3.4,39,0.00,,,0.00,WUHU216HW,2013-08-08 01:36:00,
2013-08-07 20:41:00,89.8,61.5,29.65,SSE,158,1.3,3.4,39,0.00,,,0.00,WUHU216HW,2013-08-08 01:41:00,
2013-08-07 20:46:00,89.3,61.8,29.65,South,180,0.0,1.8,40,0.00,,,0.00,WUHU216HW,2013-08-08 01:46:00,
2013-08-07 20:51:00,88.6,61.8,29.65,SSE,158,1.1,1.6,41,0.00,,,0.00,WUHU216HW,2013-08-08 01:51:00,
2013-08-07 20:56:00,87.8,61.3,29.65,SSE,158,0.9,1.6,41,0.00,,,0.00,WUHU216HW,2013-08-08 01:56:00,
2013-08-07 21:01:00,87.3,60.9,29.65,SSE,158,0.0,1.1,41,0.00,,,0.00,WUHU216HW,2013-08-08 02:01:00,
2013-08-07 21:06:00,86.8,61.6,29.65,SSE,158,0.0,0.4,43,0.00,,,0.00,WUHU216HW,2013-08-08 02:06:00,
2013-08-07 21:11:00,86.0,61.6,29.66,SSE,158,0.0,0.0,44,0.00,,,0.00,WUHU216HW,2013-08-08 02:11:00,
2013-08-07 21:16:00,85.3,61.6,29.66,SSE,158,0.0,0.0,45,0.00,,,0.00,WUHU216HW,2013-08-08 02:16:00,
2013-08-07 21:21:00,84.6,60.9,29.66,East,90,0.9,4.0,45,0.00,,,0.00,WUHU216HW,2013-08-08 02:21:00,
2013-08-07 21:26:00,84.4,60.8,29.66,SW,225,0.2,4.0,45,0.00,,,0.00,WUHU216HW,2013-08-08 02:26:00,
2013-08-07 21:31:00,84.2,61.2,29.66,SW,225,0.2,2.0,46,0.00,,,0.00,WUHU216HW,2013-08-08 02:31:00,
2013-08-07 21:36:00,83.5,61.1,29.67,SW,225,0.0,0.4,47,0.00,,,0.00,WUHU216HW,2013-08-08 02:36:00,
2013-08-07 21:41:00,83.2,60.1,29.67,SW,225,0.0,0.4,46,0.00,,,0.00,WUHU216HW,2013-08-08 02:41:00,
2013-08-07 21:46:00,83.2,60.8,29.67,SSE,158,0.0,1.1,47,0.00,,,0.00,WUHU216HW,2013-08-08 02:46:00,
2013-08-07 21:51:00,82.8,61.7,29.67,SW,225,0.0,1.1,49,0.00,,,0.00,WUHU216HW,2013-08-08 02:51:00,
2013-08-07 21:56:00,82.4,60.7,29.67,SW,225,0.0,0.7,48,0.00,,,0.00,WUHU216HW,2013-08-08 02:56:00,
2013-08-07 22:01:00,82.1,61.0,29.67,South,180,1.1,1.1,49,0.00,,,0.00,WUHU216HW,2013-08-08 03:01:00,
2013-08-07 22:06:00,81.4,61.5,29.68,South,180,0.0,2.0,51,0.00,,,0.00,WUHU216HW,2013-08-08 03:06:00,
2013-08-07 22:11:00,81.9,60.9,29.69,SE,135,1.1,3.1,49,0.00,,,0.00,WUHU216HW,2013-08-08 03:11:00,
2013-08-07 22:16:00,83.3,62.2,29.69,South,180,1.6,3.1,49,0.00,,,0.00,WUHU216HW,2013-08-08 03:16:00,
2013-08-07 22:21:00,84.6,64.5,29.69,SSE,158,5.1,5.1,51,0.00,,,0.00,WUHU216HW,2013-08-08 03:21:00,
2013-08-07 22:26:00,85.9,65.7,29.69,SSW,203,2.0,7.4,51,0.00,,,0.00,WUHU216HW,2013-08-08 03:26:00,
2013-08-07 22:31:00,86.2,66.1,29.70,SE,135,5.4,7.4,51,0.00,,,0.00,WUHU216HW,2013-08-08 03:31:00,
2013-08-07 22:36:00,86.6,68.0,29.70,South,180,4.3,7.6,54,0.00,,,0.00,WUHU216HW,2013-08-08 03:36:00,
2013-08-07 22:41:00,86.6,69.0,29.70,SSE,158,3.4,7.6,56,0.00,,,0.00,WUHU216HW,2013-08-08 03:41:00,
2013-08-07 22:46:00,86.6,69.5,29.70,South,180,2.9,7.6,57,0.00,,,0.00,WUHU216HW,2013-08-08 03:46:00,
2013-08-07 22:51:00,86.4,70.4,29.70,South,180,11.2,11.2,59,0.00,,,0.00,WUHU216HW,2013-08-08 03:51:00,
2013-08-07 22:56:00,86.4,70.9,29.70,South,180,3.1,11.2,60,0.00,,,0.00,WUHU216HW,2013-08-08 03:56:00,
2013-08-07 23:01:00,86.2,71.2,29.70,SE,135,4.5,8.3,61,0.00,,,0.00,WUHU216HW,2013-08-08 04:01:00,
2013-08-07 23:06:00,86.0,71.0,29.71,SW,225,5.1,8.3,61,0.00,,,0.00,WUHU216HW,2013-08-08 04:06:00,
2013-08-07 23:11:00,86.0,71.5,29.71,SSW,203,9.8,10.3,62,0.00,,,0.00,WUHU216HW,2013-08-08 04:11:00,
2013-08-07 23:16:00,86.0,72.0,29.71,SE,135,8.1,10.3,63,0.00,,,0.00,WUHU216HW,2013-08-08 04:16:00,
2013-08-07 23:21:00,85.9,71.8,29.71,South,180,8.9,10.3,63,0.00,,,0.00,WUHU216HW,2013-08-08 04:21:00,
2013-08-07 23:26:00,85.7,72.1,29.71,SE,135,4.0,9.8,64,0.00,,,0.00,WUHU216HW,2013-08-08 04:26:00,
2013-08-07 23:31:00,85.5,72.4,29.71,South,180,4.3,6.9,65,0.00,,,0.00,WUHU216HW,2013-08-08 04:31:00,
2013-08-07 23:36:00,85.3,72.2,29.72,SSW,203,4.0,6.9,65,0.00,,,0.00,WUHU216HW,2013-08-08 04:36:00,
2013-08-07 23:41:00,85.0,71.9,29.72,SSE,158,2.5,5.4,65,0.00,,,0.00,WUHU216HW,2013-08-08 04:41:00,
2013-08-07 23:46:00,84.8,72.2,29.72,South,180,3.4,4.9,66,0.00,,,0.00,WUHU216HW,2013-08-08 04:46:00,
2013-08-07 23:51:00,84.6,72.0,29.72,SE,135,4.0,7.2,66,0.00,,,0.00,WUHU216HW,2013-08-08 04:51:00,
2013-08-07 23:56:00,84.4,72.3,29.72,SSW,203,3.4,7.2,67,0.00,,,0.00,WUHU216HW,2013-08-08 04:56:00,